{"data":{"norad_id":64511,"intl_designator":"2025-134M","name":"KUIPER-00051","alt_names":[],"object_type":"PAYLOAD","status":"ACTIVE","operator":null,"country":"US","launch_date":"2025-06-23","launch_site_code":"AFETR","launch_vehicle":null,"mission":null,"orbit_class":"UNKNOWN","rcs_meters":null,"size_class":null,"mass_kg":null,"dimensions":null,"purposes":[],"wikipedia_slug":null,"has_3d_model":false,"image_url":null,"decayed_at":null,"tle_current":{"epoch":"2026-05-24T16:17:24.743904Z","epoch_age_seconds":96164,"freshness":"FRESH","line1":"1 64511U 25134M   26144.67875861  .00049983  00000+0  70269-2 0  9995","line2":"2 64511  51.8995 250.6462 0000639  43.0121 317.0890 14.76868978 51413","mean_motion":14.76868978,"eccentricity":6.39e-5,"inclination_deg":51.8995,"raan_deg":250.6462,"arg_perigee_deg":43.0121,"mean_anomaly_deg":317.089,"bstar":0.0070269,"rev_number":5141,"period_min":97.503571505041,"perigee_km":638.77629659095,"apogee_km":639.67311541697,"semimajor_km":7017.361706004,"source":"CELESTRAK","updated_at":"2026-05-25T13:38:04.574322Z"}}}